Weather History for KIRS - December, 2012

Change the Weather History Date:

Tuesday, December 11, 2012

  Actual Average (KHAI) Record (KHAI)
Temperature  
Mean Temperature 28 °F -  
Max Temperature 33 °F 36 °F 58 °F (1949)
Min Temperature 24 °F 22 °F -2 °F (1958)
Degree Days  
Heating Degree Days 36    
Moisture  
Dew Point 24 °F    
Average Humidity 83    
Maximum Humidity 100    
Minimum Humidity 64    
Precipitation  
Precipitation 0.00 in - - ()
Sea Level Pressure  
Sea Level Pressure 30.01 in    
Wind  
Wind Speed 6 mph (SW)    
Max Wind Speed 18 mph    
Max Gust Speed 23 mph    
Visibility 9 miles    
Events Snow    
Averages and records for this station are not official NWS values.
T = Trace of Precipitation, MM = Missing Value Source: NWS Daily Summary

Daily Weather History Graph

Daily Weather History Graph

Search for Another Location

Airport or City:

Trip Planner

Search our weather history database for the weather conditions in past years. The results will help you decide how hot, cold, wet, or windy it might be!

Date:

Astronomy

Dec. 11, 2012 Rise Set
Actual Time 7:59 AM EST 5:11 PM EST
Civil Twilight 7:27 AM EST 5:42 PM EST
Nautical Twilight 6:52 AM EST 6:17 PM EST
Astronomical Twilight 6:19 AM EST 6:51 PM EST
Moon 5:52 AM EST (12/11) 3:50 PM EST (12/11)
Length of Visible Light 10h 14m
Length of Day
9h 11m
Waning Crescent, 4% of the Moon is Illuminated
Dec 11
Waning Crescent
Dec 13
New
Dec 20
First Quarter
Dec 28
Full
Jan 4
Last Quarter

Hourly Weather History & Observations

Time (EST) Temp. Windchill Dew Point Humidity Pressure Visibility Wind Dir Wind Speed Gust Speed Precip Events Conditions
12:15 AM 30.2 °F - 28.4 °F 93% 29.87 in 10.0 mi Calm Calm - N/A   Overcast
12:35 AM 30.2 °F - 28.4 °F 93% 29.88 in 10.0 mi Calm Calm - N/A   Overcast
12:54 AM 30.2 °F - 28.4 °F 93% 29.89 in 10.0 mi Calm Calm - N/A   Overcast
1:15 AM 30.2 °F - 28.4 °F 93% 29.88 in 5.0 mi Calm Calm - N/A Snow Light Snow
1:35 AM 30.2 °F - 26.6 °F 86% 29.88 in 10.0 mi Calm Calm - N/A   Overcast
1:54 AM 30.2 °F - 26.6 °F 86% 29.88 in 5.0 mi Calm Calm - N/A Snow Light Snow
2:15 AM 30.2 °F - 26.6 °F 86% 29.89 in 5.0 mi Calm Calm - N/A Snow Light Snow
2:32 AM 28.4 °F - 26.6 °F 93% 29.89 in 10.0 mi Calm Calm - N/A Snow Light Snow
2:55 AM 28.4 °F - 26.6 °F 93% 29.89 in 10.0 mi Calm Calm - N/A Snow Light Snow
3:14 AM 30.2 °F 26.7 °F 28.4 °F 93% 29.91 in 10.0 mi WSW 3.5 mph - N/A   Overcast
3:35 AM 30.2 °F - 28.4 °F 93% 29.92 in 10.0 mi Calm Calm - N/A   Overcast
3:55 AM 30.2 °F - 28.4 °F 93% 29.92 in 10.0 mi Calm Calm - N/A Snow Light Snow
4:14 AM 28.4 °F - 26.6 °F 93% 29.92 in 10.0 mi Calm Calm - N/A Snow Light Snow
4:35 AM 28.4 °F - 26.6 °F 93% 29.92 in 10.0 mi Calm Calm - N/A   Overcast
4:55 AM 28.4 °F 24.6 °F 28.4 °F 100% 29.92 in 10.0 mi SW 3.5 mph - N/A Snow Light Snow
5:14 AM 30.2 °F 23.4 °F 28.4 °F 93% 29.92 in 2.5 mi SW 6.9 mph - N/A Snow Light Snow
5:35 AM 28.4 °F 23.3 °F 28.4 °F 100% 29.92 in 2.5 mi SSW 4.6 mph - N/A Snow Light Snow
5:55 AM 28.4 °F 22.2 °F 28.4 °F 100% 29.93 in 4.0 mi SW 5.8 mph - N/A Snow Light Snow
6:14 AM 30.2 °F 23.4 °F 28.4 °F 93% 29.94 in 7.0 mi WSW 6.9 mph - N/A   Overcast
6:35 AM 30.2 °F 23.4 °F 28.4 °F 93% 29.95 in 10.0 mi WSW 6.9 mph - N/A   Overcast
6:55 AM 30.2 °F 22.6 °F 26.6 °F 86% 29.96 in 10.0 mi WSW 8.1 mph - N/A   Overcast
7:14 AM 28.4 °F 20.4 °F 26.6 °F 93% 29.96 in 10.0 mi WSW 8.1 mph - N/A   Overcast
7:35 AM 28.4 °F 20.4 °F 24.8 °F 86% 29.98 in 10.0 mi WSW 8.1 mph - N/A   Mostly Cloudy
7:54 AM 26.6 °F 19.1 °F 24.8 °F 93% 29.99 in 10.0 mi WSW 6.9 mph - N/A   Scattered Clouds
8:15 AM 26.6 °F 18.2 °F 24.8 °F 93% 29.99 in 10.0 mi WSW 8.1 mph - N/A   Clear
8:35 AM 26.6 °F 19.1 °F 23.0 °F 86% 29.99 in 10.0 mi WSW 6.9 mph - N/A   Clear
9:15 AM 26.6 °F 18.2 °F 24.8 °F 93% 30.00 in 10.0 mi SW 8.1 mph - N/A   Clear
9:35 AM 28.4 °F 19.7 °F 24.8 °F 86% 30.01 in 10.0 mi SW 9.2 mph - N/A   Scattered Clouds
9:54 AM 28.4 °F 19.7 °F 26.6 °F 93% 30.01 in 7.0 mi SW 9.2 mph - N/A   Mostly Cloudy
10:15 AM 28.4 °F 19.7 °F 26.6 °F 93% 30.01 in 7.0 mi SW 9.2 mph - N/A   Overcast
10:35 AM 28.4 °F 20.4 °F 26.6 °F 93% 30.02 in 7.0 mi SW 8.1 mph - N/A   Overcast
10:54 AM 30.2 °F 21.9 °F 24.8 °F 80% 30.03 in 10.0 mi WSW 9.2 mph - N/A   Overcast
11:15 AM 30.2 °F 21.3 °F 24.8 °F 80% 30.02 in 10.0 mi WSW 10.4 mph 17.3 mph N/A   Scattered Clouds
11:34 AM 30.2 °F 19.3 °F 24.8 °F 80% 30.03 in 10.0 mi WSW 15.0 mph - N/A   Scattered Clouds
11:55 AM 30.2 °F 20.8 °F 24.8 °F 80% 30.02 in 10.0 mi WSW 11.5 mph 17.3 mph N/A   Mostly Cloudy
12:14 PM 32.0 °F 21.6 °F 23.0 °F 69% 30.03 in 10.0 mi WSW 15.0 mph - N/A   Mostly Cloudy
12:34 PM 33.8 °F 22.8 °F 23.0 °F 65% 30.03 in 10.0 mi SW 18.4 mph 21.9 mph N/A   Scattered Clouds
12:55 PM 32.0 °F 21.6 °F 24.8 °F 75% 30.03 in 10.0 mi NNW 15.0 mph - N/A   Scattered Clouds
1:15 PM 32.0 °F 20.8 °F 24.8 °F 75% 30.03 in 10.0 mi SW 17.3 mph 23.0 mph N/A   Mostly Cloudy
1:34 PM 30.2 °F 18.9 °F 23.0 °F 75% 30.03 in 10.0 mi SW 16.1 mph - N/A   Mostly Cloudy
1:55 PM 32.0 °F 21.2 °F 23.0 °F 69% 30.02 in 10.0 mi SSW 16.1 mph - N/A   Mostly Cloudy
2:14 PM 32.0 °F 20.5 °F 21.2 °F 64% 30.02 in 10.0 mi SW 18.4 mph - N/A   Mostly Cloudy
2:35 PM 32.0 °F 21.6 °F 21.2 °F 64% 30.02 in 10.0 mi SW 15.0 mph 20.7 mph N/A   Scattered Clouds
2:55 PM 32.0 °F 22.1 °F 21.2 °F 64% 30.02 in 10.0 mi WSW 13.8 mph 17.3 mph N/A   Clear
3:14 PM 32.0 °F 21.2 °F 21.2 °F 64% 30.02 in 10.0 mi SW 16.1 mph 23.0 mph N/A   Scattered Clouds
3:35 PM 30.2 °F 19.3 °F 21.2 °F 69% 30.03 in 10.0 mi SW 15.0 mph 20.7 mph N/A   Scattered Clouds
3:55 PM 30.2 °F 19.8 °F 21.2 °F 69% 30.03 in 10.0 mi WSW 13.8 mph - N/A   Clear
4:14 PM 30.2 °F 19.3 °F 21.2 °F 69% 30.03 in 10.0 mi WSW 15.0 mph 20.7 mph N/A   Scattered Clouds
4:35 PM 30.2 °F 19.8 °F 21.2 °F 69% 30.04 in 10.0 mi SW 13.8 mph 17.3 mph N/A   Scattered Clouds
4:54 PM 30.2 °F 18.9 °F 21.2 °F 69% 30.04 in 10.0 mi SW 16.1 mph - N/A   Clear
5:15 PM 30.2 °F 21.3 °F 21.2 °F 69% 30.04 in 10.0 mi SSW 10.4 mph - N/A   Clear
5:34 PM 28.4 °F 18.5 °F 21.2 °F 74% 30.05 in 10.0 mi SSW 11.5 mph - N/A   Clear
5:55 PM 28.4 °F 18.0 °F 21.2 °F 74% 30.05 in 10.0 mi SSW 12.7 mph - N/A   Clear
6:15 PM 28.4 °F 19.1 °F 21.2 °F 74% 30.05 in 10.0 mi SSW 10.4 mph - N/A   Clear
6:34 PM 28.4 °F 18.5 °F 21.2 °F 74% 30.05 in 10.0 mi SSW 11.5 mph - N/A   Clear
6:55 PM 28.4 °F 18.5 °F 21.2 °F 74% 30.06 in 10.0 mi SSW 11.5 mph - N/A   Clear
7:15 PM 28.4 °F 19.1 °F 21.2 °F 74% 30.06 in 10.0 mi SSW 10.4 mph - N/A   Clear
7:34 PM 28.4 °F 19.7 °F 23.0 °F 80% 30.07 in 10.0 mi SSW 9.2 mph - N/A   Clear
7:55 PM 28.4 °F 20.4 °F 23.0 °F 80% 30.07 in 10.0 mi SSW 8.1 mph - N/A   Clear
8:15 PM 26.6 °F 18.2 °F 23.0 °F 86% 30.08 in 10.0 mi SW 8.1 mph - N/A   Clear
8:34 PM 26.6 °F 19.1 °F 23.0 °F 86% 30.09 in 10.0 mi SSW 6.9 mph - N/A   Clear
8:55 PM 26.6 °F 20.0 °F 21.2 °F 80% 30.10 in 10.0 mi SSW 5.8 mph - N/A   Clear
9:14 PM 24.8 °F 17.9 °F 21.2 °F 86% 30.11 in 10.0 mi SW 5.8 mph - N/A   Clear
9:35 PM 24.8 °F 19.1 °F 21.2 °F 86% 30.11 in 10.0 mi SSW 4.6 mph - N/A   Clear
9:54 PM 24.8 °F 19.1 °F 21.2 °F 86% 30.12 in 10.0 mi SSW 4.6 mph - N/A   Clear
10:14 PM 24.8 °F 17.9 °F 21.2 °F 86% 30.12 in 10.0 mi SSW 5.8 mph - N/A   Clear
10:35 PM 24.8 °F 17.9 °F 21.2 °F 86% 30.12 in 10.0 mi SW 5.8 mph - N/A   Clear
10:54 PM 24.8 °F 16.9 °F 21.2 °F 86% 30.12 in 10.0 mi SW 6.9 mph - N/A   Clear
11:15 PM 26.6 °F 18.2 °F 23.0 °F 86% 30.13 in 10.0 mi SW 8.1 mph - N/A   Clear
11:35 PM 26.6 °F 19.1 °F 23.0 °F 86% 30.13 in 10.0 mi SW 6.9 mph - N/A   Clear
11:55 PM 26.6 °F 18.2 °F 23.0 °F 86% 30.14 in 10.0 mi SW 8.1 mph - N/A   Clear